カタログに戻る

COSMOS 886 DEB

運用中UNKNOWN
NORAD 9956·DEBRIS·🇷🇺 Russia

打ち上げ Dec 27, 1976 から Baikonur Cosmodrome

Loading…

次のパス (今後24時間)

TLE

最新Source: Space-Track

元期: Sep 4, 2026, 09:16 UTC

1  9956U 76126AW  26247.38641382  .00000033  00000-0  15580-3 0  9995
2  9956  65.7953  40.8814 0931312 271.3646  78.0986 12.36903280540965

AllMySatでCOSMOS 886 DEBをリアルタイム追跡

Download on the App Store